This is the latest recevied weather packets stored in our database for station/object N5KJT. If no packets are shown the sender has not sent any weather packets the latest 10 day(s).
| Time | Temp. | Humidity | Pressure | Rain* | Wind** | Luminosity | Snow |
|---|---|---|---|---|---|---|---|
| 1787772017 | 31.67° C | 32% | 1027.7 hPa | 0 mm | - | 1202 W/m² | - |
| 1787771717 | 31.11° C | 34% | 1027.9 hPa | 0 mm | - | 1200 W/m² | - |
| 1787771417 | 31.11° C | 34% | 1028 hPa | 0 mm | - | 1197 W/m² | - |
| 1787771117 | 31.11° C | 34% | 1028.2 hPa | 0 mm | - | 1193 W/m² | - |
| 1787770817 | 30.56° C | 37% | 1028.2 hPa | 0 mm | - | 1195 W/m² | - |
| 1787770517 | 30° C | 35% | 1028.4 hPa | 0 mm | - | 1193 W/m² | - |
| 1787770217 | 30° C | 38% | 1028.5 hPa | 0 mm | - | 1186 W/m² | - |
| 1787769917 | 30° C | 37% | 1028.7 hPa | 0 mm | - | 1181 W/m² | - |
| 1787769617 | 30° C | 38% | 1028.7 hPa | 0 mm | - | 1178 W/m² | - |
| 1787769317 | 30° C | 39% | 1028.7 hPa | 0 mm | - | 1174 W/m² | - |
| 1787769017 | 30° C | 37% | 1028.8 hPa | 0 mm | - | 1168 W/m² | - |
| 1787768717 | 29.44° C | 38% | 1028.9 hPa | 0 mm | - | 1163 W/m² | - |
| 1787768417 | 29.44° C | 39% | 1028.9 hPa | 0 mm | - | 1063 W/m² | - |
| 1787768117 | 28.89° C | 39% | 1029 hPa | 0 mm | - | 733 W/m² | - |
| 1787767817 | 28.89° C | 40% | 1029 hPa | 0 mm | - | 785 W/m² | - |
| 1787767517 | 28.33° C | 40% | 1029.2 hPa | 0 mm | - | 850 W/m² | - |
| 1787767217 | 28.33° C | 39% | 1029.3 hPa | 0 mm | - | 919 W/m² | - |
| 1787766917 | 28.33° C | 40% | 1029.5 hPa | 0 mm | - | 1028 W/m² | - |
| 1787766617 | 27.78° C | 41% | 1029.6 hPa | 0 mm | - | 1091 W/m² | - |
| 1787766317 | 27.78° C | 41% | 1029.7 hPa | 0 mm | - | 1096 W/m² | - |
| 1787766017 | 27.22° C | 43% | 1029.6 hPa | 0 mm | - | 1085 W/m² | - |
| 1787765717 | 27.22° C | 41% | 1029.6 hPa | 0 mm | - | 1073 W/m² | - |
| 1787765417 | 27.22° C | 42% | 1029.6 hPa | 0 mm | - | 1062 W/m² | - |
| 1787765117 | 27.22° C | 44% | 1029.6 hPa | 0 mm | - | 1050 W/m² | - |
| 1787764817 | 27.22° C | 44% | 1029.7 hPa | 0 mm | - | 1037 W/m² | - |
* Rain latest hour (hover to see other rain measurements)
** Current wind speed in m/s (hover to see current wind gust speed)